Omaha Offutt, NE

3:43 AM CDT on August 22, 2017 (GMT -0500)
Offutt Air Force Base

Weather History for KOFF - February, 2014

Change the Weather History Date:

Thursday, February 20, 2014

  Actual Average Record
Temperature  
Mean Temperature 34 °F -  
Max Temperature 42 °F 38 °F 98 °F (2017)
Min Temperature 26 °F 21 °F -5 °F (2008)
Degree Days  
Heating Degree Days 30    
Moisture  
Dew Point 32 °F    
Average Humidity 90    
Maximum Humidity 100    
Minimum Humidity 62    
Precipitation  
Precipitation 0.20 in - - ()
Snow  
Snow 0.00 in - - ()
Snow Depth 1.00 in    
Sea Level Pressure  
Sea Level Pressure 29.56 in    
Wind  
Wind Speed 14 mph (NNW)    
Max Wind Speed 31 mph    
Max Gust Speed 38 mph    
Visibility 6 miles    
Events Rain , Snow    
Averages and records for this station are not official NWS values.
T = Trace of Precipitation, MM = Missing Value Source: NWS Daily Summary

Daily Weather History Graph

Daily Weather History Graph

Search for Another Location

Airport or City:

Trip Planner

Search our weather history database for the weather conditions in past years. The results will help you decide how hot, cold, wet, or windy it might be!

Date:

Astronomy

Feb. 20, 2014 Rise Set
Actual Time 7:11 AM CST 6:04 PM CST
Civil Twilight 6:43 AM CST 6:32 PM CST
Nautical Twilight 6:11 AM CST 7:04 PM CST
Astronomical Twilight 5:39 AM CST 7:36 PM CST
Moon No Moon Rise 9:51 AM CST (2/20)
Length of Visible Light 11h 48m
Length of Day
10h 52m
Waning Gibbous, 70% of the Moon is Illuminated
Feb 20
Waning Gibbous
Feb 22
Last Quarter
Mar 1
New
Mar 8
First Quarter
Mar 16
Full

Hourly Weather History & Observations

Time (CST) Temp. Windchill Dew Point Humidity Pressure Visibility Wind Dir Wind Speed Gust Speed Precip Events Conditions
12:58 AM 42.3 °F 35.5 °F 36.9 °F 81% 29.59 in 10.0 mi ESE 12.7 mph - N/A   Overcast
1:58 AM 41.4 °F 35.7 °F 37.9 °F 88% 29.57 in 10.0 mi ESE 9.2 mph - N/A   Overcast
2:58 AM 40.3 °F 35.5 °F 38.7 °F 94% 29.57 in 10.0 mi ESE 6.9 mph - N/A   Overcast
3:58 AM 38.7 °F - 38.5 °F 99% 29.57 in 10.0 mi West 2.3 mph - N/A   Overcast
4:33 AM 39.2 °F 34.2 °F 39.2 °F 100% 29.53 in 10.0 mi NW 6.9 mph - N/A   Overcast
4:58 AM 40.5 °F 35.1 °F 39.6 °F 97% 29.51 in 10.0 mi North 8.1 mph - N/A   Overcast
5:38 AM 41.0 °F 35.2 °F 39.2 °F 93% 29.50 in 10.0 mi NNW 9.2 mph - N/A   Overcast
5:58 AM 41.0 °F 37.1 °F 37.4 °F 87% 29.55 in 10.0 mi North 5.8 mph - N/A   Overcast
6:42 AM 41.0 °F 35.2 °F 33.8 °F 76% 29.51 in 10.0 mi North 9.2 mph - N/A Rain Light Rain
6:58 AM 40.1 °F 33.6 °F 33.3 °F 77% 29.53 in 10.0 mi NNW 10.4 mph - 0.00 in Rain Light Rain
7:07 AM 39.2 °F 32.5 °F 32.0 °F 75% 29.51 in 10.0 mi North 10.4 mph 18.4 mph N/A Rain Light Rain
7:18 AM 39.2 °F 32.0 °F 32.0 °F 75% 29.51 in 10.0 mi NNW 11.5 mph - N/A Rain Light Rain
7:27 AM 37.4 °F 28.9 °F 32.0 °F 81% 29.51 in 9.0 mi North 13.8 mph - N/A Rain , Snow Light Rain
7:39 AM 37.4 °F 28.9 °F 33.8 °F 87% 29.48 in 3.0 mi NNW 13.8 mph - N/A Rain , Snow Light Rain
7:50 AM 35.6 °F 25.2 °F 35.6 °F 100% 29.47 in 2.0 mi NNW 18.4 mph 21.9 mph N/A Snow Light Snow
7:58 AM 34.7 °F 24.7 °F 34.5 °F 99% 29.50 in 5.0 mi NNW 16.1 mph 24.2 mph 0.02 in Snow Light Snow
8:13 AM 33.8 °F 23.2 °F 33.8 °F 100% 29.47 in 10.0 mi NNW 17.3 mph - N/A Snow Light Snow
8:23 AM 33.8 °F 23.9 °F 33.8 °F 100% 29.46 in 7.0 mi NNW 15.0 mph - N/A Rain , Snow Light Rain
8:38 AM 33.8 °F 22.2 °F 33.8 °F 100% 29.44 in 8.0 mi NNW 20.7 mph 26.5 mph N/A Rain , Snow Light Rain
8:58 AM 34.2 °F 22.6 °F 33.8 °F 99% 29.49 in 2.0 mi NNW 20.7 mph 28.8 mph 0.01 in Snow Light Snow
9:05 AM 33.8 °F 21.9 °F 33.8 °F 100% 29.49 in 2.0 mi NW 21.9 mph 29.9 mph N/A Snow Light Snow
9:18 AM 33.8 °F 21.0 °F 33.8 °F 100% 29.55 in 2.0 mi NNW 25.3 mph 32.2 mph N/A Snow Light Snow
9:22 AM 33.8 °F 21.9 °F 33.8 °F 100% 29.50 in 1.5 mi NNW 21.9 mph 32.2 mph N/A Snow Light Snow
9:32 AM 33.8 °F 24.3 °F 32.0 °F 93% 29.54 in 1.0 mi WNW 13.8 mph 28.8 mph N/A Snow Light Snow
9:37 AM 32.0 °F 21.6 °F 32.0 °F 100% 29.54 in 0.5 mi NW 15.0 mph 21.9 mph N/A Snow Snow
9:52 AM 32.0 °F 19.8 °F 32.0 °F 100% 29.54 in 1.0 mi NW 20.7 mph 27.6 mph N/A Snow Light Snow
9:58 AM 32.0 °F 20.5 °F 32.0 °F 100% 29.57 in 0.5 mi NW 18.4 mph 27.6 mph 0.03 in Snow Snow
10:08 AM 32.0 °F 21.2 °F 32.0 °F 100% 29.52 in 0.2 mi NNW 16.1 mph 25.3 mph N/A Snow Heavy Snow
10:14 AM 32.0 °F 21.2 °F 32.0 °F 100% 29.53 in 0.2 mi NNW 16.1 mph 25.3 mph N/A Snow Heavy Snow
10:24 AM 32.0 °F 20.5 °F 32.0 °F 100% 29.52 in 0.2 mi NNW 18.4 mph 26.5 mph N/A Snow Heavy Snow
10:32 AM 32.0 °F 21.2 °F 32.0 °F 100% 29.52 in 0.5 mi NNW 16.1 mph 24.2 mph N/A Snow Snow
10:39 AM 32.0 °F 20.5 °F 32.0 °F 100% 29.51 in 0.8 mi NNW 18.4 mph 24.2 mph N/A Snow Light Snow
10:45 AM 32.0 °F 19.8 °F 32.0 °F 100% 29.51 in 1.0 mi NNW 20.7 mph 27.6 mph N/A Snow Light Snow
10:58 AM 33.8 °F 21.0 °F 33.8 °F 100% 29.55 in 0.5 mi NNW 25.3 mph 32.2 mph 0.04 in Snow Snow
11:28 AM 32.0 °F 20.1 °F 32.0 °F 100% 29.49 in 0.5 mi NNW 19.6 mph 31.1 mph N/A Snow Snow
11:33 AM 32.0 °F 20.5 °F 32.0 °F 100% 29.49 in 1.5 mi NNW 18.4 mph 29.9 mph N/A Snow Light Snow
11:38 AM 33.8 °F 21.9 °F 33.8 °F 100% 29.49 in 2.0 mi NNW 21.9 mph 31.1 mph N/A Snow Light Snow
11:43 AM 33.8 °F 21.6 °F 33.8 °F 100% 29.48 in 3.0 mi NNW 23.0 mph 32.2 mph N/A Snow Light Snow
11:58 AM 34.3 °F 22.3 °F 34.2 °F 99% 29.54 in 3.0 mi NW 23.0 mph 31.1 mph 0.02 in Snow Light Snow
12:58 PM 34.2 °F 24.0 °F 34.0 °F 99% 29.55 in 3.0 mi NW 16.1 mph 23.0 mph 0.07 in Snow Light Snow
1:32 PM 35.6 °F 24.8 °F 35.6 °F 100% 29.51 in 10.0 mi NW 19.6 mph 28.8 mph N/A   Overcast
1:58 PM 35.8 °F 26.1 °F 35.4 °F 99% 29.56 in 10.0 mi NW 16.1 mph 24.2 mph 0.01 in   Mostly Cloudy
2:58 PM 38.3 °F 30.9 °F 36.1 °F 92% 29.58 in 10.0 mi West 11.5 mph - N/A   Mostly Cloudy
3:58 PM 40.8 °F 31.1 °F 29.8 °F 65% 29.60 in 10.0 mi West 21.9 mph 31.1 mph N/A   Mostly Cloudy
4:58 PM 38.1 °F 27.9 °F 27.0 °F 64% 29.65 in 10.0 mi WNW 20.7 mph 31.1 mph N/A   Overcast
5:58 PM 36.3 °F 23.3 °F 26.4 °F 67% 29.69 in 10.0 mi NW 31.1 mph 34.5 mph N/A   Overcast
6:58 PM 33.1 °F 20.6 °F 22.6 °F 66% 29.74 in 10.0 mi WNW 23.0 mph 29.9 mph N/A   Overcast
7:58 PM 30.7 °F 16.9 °F 19.9 °F 64% 29.76 in 10.0 mi WNW 25.3 mph 36.8 mph N/A   Overcast
8:58 PM 29.8 °F 17.0 °F 19.2 °F 65% 29.78 in 10.0 mi WNW 20.7 mph 33.4 mph N/A   Overcast
9:58 PM 29.5 °F 15.5 °F 17.8 °F 62% 29.78 in 10.0 mi WNW 24.2 mph 38.0 mph N/A   Overcast
10:58 PM 27.5 °F 12.3 °F 16.2 °F 62% 29.78 in 10.0 mi WNW 26.5 mph 33.4 mph N/A   Scattered Clouds
11:58 PM 26.4 °F 13.2 °F 16.3 °F 66% 29.80 in 10.0 mi WNW 18.4 mph 25.3 mph N/A   Clear